TimeMST,TemperatureF,Dew PointF,Humidity,Sea Level PressureIn,VisibilityMPH,Wind Direction,Wind SpeedMPH,Gust SpeedMPH,PrecipitationIn,Events,Conditions,WindDirDegrees,DateUTC
12:53 AM,60.1,37.0,42,29.93,10.0,Calm,Calm,-,N/A,,Clear,0,2011-10-12 07:53:00
1:53 AM,59.0,36.0,42,29.94,10.0,SE,8.1,-,N/A,,Clear,130,2011-10-12 08:53:00
2:53 AM,61.0,37.0,41,29.94,10.0,Calm,Calm,-,N/A,,Clear,0,2011-10-12 09:53:00
3:53 AM,61.0,37.9,42,29.94,10.0,NNW,5.8,-,N/A,,Clear,330,2011-10-12 10:53:00
4:53 AM,57.0,37.0,47,29.95,10.0,SE,5.8,-,N/A,,Clear,140,2011-10-12 11:53:00
5:53 AM,55.9,37.0,49,29.99,10.0,Calm,Calm,-,N/A,,Clear,0,2011-10-12 12:53:00
6:53 AM,55.4,37.4,51,30.14,10.0,Calm,Calm,-,N/A,,Clear,0,2011-10-12 13:53:00
7:53 AM,62.1,36.0,38,30.04,10.0,Variable,5.8,-,N/A,,Clear,0,2011-10-12 14:53:00
8:53 AM,64.0,36.0,35,30.04,10.0,NNW,5.8,-,N/A,,Clear,340,2011-10-12 15:53:00
9:53 AM,66.9,39.0,36,30.05,10.0,North,4.6,-,N/A,,Clear,350,2011-10-12 16:53:00
10:53 AM,69.1,37.0,31,30.05,10.0,Variable,3.5,-,N/A,,Clear,0,2011-10-12 17:53:00
11:53 AM,73.0,37.0,27,30.03,10.0,Calm,Calm,-,N/A,,Clear,0,2011-10-12 18:53:00
12:53 PM,75.0,35.1,23,30.01,10.0,Variable,3.5,-,N/A,,Clear,0,2011-10-12 19:53:00
1:53 PM,75.9,34.0,22,29.99,10.0,North,6.9,-,N/A,,Clear,360,2011-10-12 20:53:00
2:53 PM,77.0,27.0,16,29.98,10.0,NNE,3.5,-,N/A,,Clear,30,2011-10-12 21:53:00
3:53 PM,75.9,28.0,17,29.97,10.0,Calm,Calm,-,N/A,,Clear,0,2011-10-12 22:53:00
4:53 PM,75.9,27.0,16,29.97,10.0,Calm,Calm,-,N/A,,Clear,0,2011-10-12 23:53:00
5:53 PM,70.0,34.0,27,30.00,10.0,Calm,Calm,-,N/A,,Clear,0,2011-10-13 00:53:00
6:53 PM,66.2,30.2,26,30.12,10.0,ENE,3.5,-,N/A,,Clear,70,2011-10-13 01:53:00
7:53 PM,64.9,32.0,29,30.01,10.0,SE,3.5,-,N/A,,Clear,130,2011-10-13 02:53:00
8:53 PM,66.0,27.0,23,30.01,10.0,SE,3.5,-,N/A,,Clear,140,2011-10-13 03:53:00
9:53 PM,60.8,26.6,27,30.16,10.0,Calm,Calm,-,N/A,,Clear,0,2011-10-13 04:53:00
10:53 PM,57.2,28.4,33,30.16,10.0,Calm,Calm,-,N/A,,Clear,0,2011-10-13 05:53:00
11:53 PM,57.9,26.1,30,30.03,10.0,WNW,3.5,-,N/A,,Clear,290,2011-10-13 06:53:00